When you browse on this site, cookies collect data to enhance your experience and personalize the content and advertising you see.
Visit our Privacy Policy to learn more. By continuing to use the site, you agree to this use of cookies and data.
  • In Hungary
  • List of Countries
  • For 7 days
  • Water Temperature
  • Weather Map
  • News
  • Weather Widgets
  • user-avatar
    Login

    Hourly Weather Werstok

    Today, 4 April, Saturday

    Time Temperature Precipitation Wind Pressure Humidity
    00:00 0°C° 0 mm 4 mps 745 mmHg 69%
    01:00 +1°C° 0 mm 3 mps 746 mmHg 69%
    02:00 0°C° 0 mm 3 mps 746 mmHg 73%
    03:00 0°C° 0 mm 3 mps 747 mmHg 73%
    04:00 -1°C° 0 mm 3 mps 747 mmHg 74%
    05:00 -2°C° 0 mm 3 mps 748 mmHg 75%
    06:00 0°C° 0 mm 3 mps 748 mmHg 70%
    07:00 +1°C° 0 mm 3 mps 749 mmHg 66%
    08:00 +1°C° 0 mm 4 mps 750 mmHg 61%
    09:00 +3°C° 0 mm 4 mps 750 mmHg 55%
    10:00 +4°C° 0 mm 4 mps 751 mmHg 48%
    11:00 +6°C° 0 mm 5 mps 751 mmHg 41%
    12:00 +7°C° 0 mm 5 mps 752 mmHg 39%
    13:00 +7°C° 0 mm 5 mps 752 mmHg 37%
    14:00 +8°C° 0 mm 5 mps 752 mmHg 35%
    15:00 +8°C° 0 mm 5 mps 753 mmHg 36%
    16:00 +8°C° 0 mm 4 mps 753 mmHg 36%
    17:00 +8°C° 0 mm 4 mps 753 mmHg 37%
    18:00 +7°C° 0 mm 3 mps 754 mmHg 42%
    19:00 +6°C° 0 mm 2 mps 754 mmHg 48%
    20:00 +5°C° 0 mm 2 mps 754 mmHg 54%
    21:00 +5°C° 0 mm 1 mps 755 mmHg 56%
    22:00 +4°C° 0 mm 1 mps 755 mmHg 59%
    23:00 +4°C° 0 mm 1 mps 756 mmHg 62%

    Tomorrow, 5 April, Sunday

    Time Temperature Precipitation Wind Pressure Humidity
    00:00 +3°C° 0 mm 1 mps 756 mmHg 64%
    01:00 +3°C° 0 mm 1 mps 757 mmHg 67%
    02:00 +3°C° 0 mm 1 mps 757 mmHg 69%
    03:00 +1°C° 0 mm 0 mps 758 mmHg 71%
    04:00 +1°C° 0 mm 0 mps 758 mmHg 73%
    05:00 +1°C° 0 mm 0 mps 758 mmHg 74%
    06:00 +2°C° 0 mm 0 mps 758 mmHg 70%
    07:00 +3°C° 0 mm 0 mps 759 mmHg 66%
    08:00 +4°C° 0 mm 0 mps 759 mmHg 62%
    09:00 +6°C° 0 mm 0 mps 760 mmHg 57%
    10:00 +8°C° 0 mm 0 mps 760 mmHg 51%
    11:00 +9°C° 0 mm 0 mps 760 mmHg 46%
    12:00 +10°C° 0 mm 0 mps 760 mmHg 43%
    13:00 +11°C° 0 mm 0 mps 760 mmHg 40%
    14:00 +12°C° 0 mm 0 mps 760 mmHg 37%
    15:00 +12°C° 0 mm 0 mps 760 mmHg 37%
    16:00 +12°C° 0 mm 1 mps 760 mmHg 37%
    17:00 +12°C° 0 mm 1 mps 759 mmHg 37%
    18:00 +11°C° 0 mm 1 mps 759 mmHg 41%
    19:00 +10°C° 0 mm 1 mps 759 mmHg 45%
    20:00 +8°C° 0 mm 1 mps 760 mmHg 49%
    21:00 +8°C° 0 mm 1 mps 760 mmHg 51%
    22:00 +7°C° 0 mm 1 mps 760 mmHg 52%
    23:00 +6°C° 0 mm 2 mps 760 mmHg 54%

    Day after tomorrow, 6 April, Monday

    Time Temperature Precipitation Wind Pressure Humidity
    00:00 +5°C° 0 mm 2 mps 760 mmHg 56%
    01:00 +5°C° 0 mm 2 mps 760 mmHg 58%
    02:00 +4°C° 0 mm 2 mps 760 mmHg 61%
    03:00 +4°C° 0 mm 2 mps 760 mmHg 62%
    04:00 +3°C° 0 mm 2 mps 760 mmHg 63%
    05:00 +3°C° 0 mm 2 mps 760 mmHg 65%
    06:00 +4°C° 0 mm 2 mps 760 mmHg 62%
    07:00 +4°C° 0 mm 3 mps 760 mmHg 59%
    08:00 +5°C° 0 mm 3 mps 761 mmHg 56%
    09:00 +8°C° 0 mm 3 mps 761 mmHg 51%
    10:00 +10°C° 0 mm 4 mps 761 mmHg 45%
    11:00 +12°C° 0 mm 4 mps 761 mmHg 40%
    12:00 +12°C° 0 mm 4 mps 760 mmHg 39%
    13:00 +13°C° 0 mm 4 mps 760 mmHg 37%
    14:00 +14°C° 0 mm 4 mps 760 mmHg 36%
    15:00 +14°C° 0 mm 4 mps 760 mmHg 37%
    16:00 +14°C° 0 mm 4 mps 759 mmHg 38%
    17:00 +14°C° 0 mm 4 mps 759 mmHg 38%
    18:00 +12°C° 0 mm 4 mps 759 mmHg 43%
    19:00 +10°C° 0 mm 3 mps 759 mmHg 47%
    20:00 +9°C° 0 mm 3 mps 759 mmHg 52%
    21:00 +8°C° 0 mm 3 mps 759 mmHg 53%
    22:00 +7°C° 0 mm 3 mps 759 mmHg 54%
    23:00 +7°C° 0 mm 3 mps 759 mmHg 55%

    7 April, Tuesday

    Time Temperature Precipitation Wind Pressure Humidity
    00:00 +5°C° 0 mm 3 mps 759 mmHg 56%
    01:00 +5°C° 0 mm 3 mps 759 mmHg 58%
    02:00 +4°C° 0 mm 3 mps 759 mmHg 59%
    03:00 +4°C° 0 mm 3 mps 759 mmHg 60%
    04:00 +3°C° 0 mm 3 mps 759 mmHg 62%
    05:00 +3°C° 0 mm 3 mps 759 mmHg 63%
    06:00 +4°C° 0 mm 3 mps 759 mmHg 59%
    07:00 +5°C° 0 mm 4 mps 759 mmHg 56%
    08:00 +6°C° 0 mm 4 mps 759 mmHg 53%
    09:00 +8°C° 0 mm 4 mps 759 mmHg 49%
    10:00 +11°C° 0 mm 4 mps 759 mmHg 45%
    11:00 +13°C° 0 mm 4 mps 759 mmHg 41%
    12:00 +14°C° 0 mm 4 mps 759 mmHg 40%
    13:00 +15°C° 0 mm 4 mps 759 mmHg 38%
    14:00 +17°C° 0 mm 4 mps 759 mmHg 36%
    15:00 +17°C° 0 mm 3 mps 759 mmHg 37%
    16:00 +17°C° 0 mm 3 mps 758 mmHg 37%
    17:00 +17°C° 0 mm 3 mps 758 mmHg 38%
    18:00 +15°C° 0 mm 2 mps 758 mmHg 42%
    19:00 +14°C° 0 mm 2 mps 758 mmHg 47%
    20:00 +12°C° 0 mm 1 mps 758 mmHg 52%
    21:00 +11°C° 0 mm 1 mps 758 mmHg 52%
    22:00 +11°C° 0 mm 1 mps 758 mmHg 53%
    23:00 +10°C° 0 mm 1 mps 758 mmHg 53%

    8 April, Wednesday

    Time Temperature Precipitation Wind Pressure Humidity
    00:00 +10°C° 0 mm 1 mps 758 mmHg 55%
    01:00 +9°C° 0 mm 1 mps 758 mmHg 57%
    02:00 +9°C° 0 mm 1 mps 758 mmHg 59%
    03:00 +8°C° 0 mm 1 mps 758 mmHg 61%
    04:00 +8°C° 0 mm 1 mps 758 mmHg 63%
    05:00 +7°C° 0 mm 1 mps 758 mmHg 65%
    06:00 +9°C° 0 mm 1 mps 758 mmHg 63%
    07:00 +10°C° 0 mm 1 mps 758 mmHg 60%
    08:00 +11°C° 0 mm 1 mps 758 mmHg 58%
    09:00 +13°C° 0 mm 1 mps 758 mmHg 53%
    10:00 +15°C° 0 mm 1 mps 758 mmHg 47%
    11:00 +18°C° 0 mm 1 mps 758 mmHg 42%
    12:00 +19°C° 0 mm 1 mps 757 mmHg 39%
    13:00 +19°C° 0 mm 1 mps 757 mmHg 36%
    14:00 +20°C° 0 mm 1 mps 757 mmHg 34%
    15:00 +20°C° 0 mm 1 mps 756 mmHg 34%
    16:00 +20°C° 0 mm 1 mps 756 mmHg 35%
    17:00 +20°C° 0 mm 1 mps 755 mmHg 36%
    18:00 +18°C° 0 mm 1 mps 755 mmHg 41%
    19:00 +15°C° 0 mm 1 mps 755 mmHg 46%
    20:00 +14°C° 0 mm 1 mps 755 mmHg 51%
    21:00 +13°C° 0 mm 1 mps 755 mmHg 54%
    22:00 +13°C° 0 mm 1 mps 755 mmHg 56%
    23:00 +12°C° 0 mm 1 mps 755 mmHg 59%

    9 April, Thursday

    Time Temperature Precipitation Wind Pressure Humidity
    00:00 +11°C° 0 mm 1 mps 755 mmHg 61%
    01:00 +11°C° 0 mm 1 mps 755 mmHg 63%
    02:00 +10°C° 0 mm 1 mps 755 mmHg 65%
    03:00 +10°C° 0 mm 1 mps 755 mmHg 67%
    04:00 +10°C° 0 mm 1 mps 755 mmHg 69%
    05:00 +9°C° 0 mm 1 mps 755 mmHg 70%
    06:00 +10°C° 0 mm 1 mps 755 mmHg 68%
    07:00 +12°C° 0 mm 1 mps 755 mmHg 66%
    08:00 +13°C° 0 mm 1 mps 755 mmHg 63%
    09:00 +14°C° 0 mm 2 mps 755 mmHg 58%
    10:00 +16°C° 0 mm 2 mps 755 mmHg 52%
    11:00 +18°C° 0 mm 2 mps 755 mmHg 47%
    12:00 +18°C° 0 mm 3 mps 754 mmHg 46%
    13:00 +18°C° 0 mm 3 mps 754 mmHg 46%
    14:00 +18°C° 0 mm 3 mps 754 mmHg 45%
    15:00 +18°C° 0 mm 3 mps 754 mmHg 46%
    16:00 +18°C° 0 mm 3 mps 753 mmHg 46%
    17:00 +18°C° 0 mm 3 mps 753 mmHg 47%
    18:00 +17°C° 0 mm 3 mps 753 mmHg 52%
    19:00 +15°C° 0 mm 2 mps 753 mmHg 56%
    20:00 +14°C° 0 mm 2 mps 753 mmHg 61%
    21:00 +13°C° 0 mm 2 mps 753 mmHg 63%
    22:00 +12°C° 0 mm 2 mps 753 mmHg 65%
    23:00 +10°C° 0 mm 2 mps 754 mmHg 67%
    Show more